,

(GMT )
Teruel

Tiempo Historia de LETL - Enero, 2019

Change the Weather History Date:

Domingo, Enero 13, 2019

  Actual Average Record
Temperature  
Temperatura media 32 ° F -  
Temperatura máxima 44 ° F - - ()
Temperatura mínima 21 ° F - - ()
Degree Days  
Grados día de calefacción 32    
Moisture  
Punto de rocío 25 ° F    
Average Humidity 80    
Maximum Humidity 93    
Minimum Humidity 53    
Precipitación  
Precipitación 0.00 pul - - ()
Presión al nivel del mar  
Presión al nivel del mar 30.33 pul    
Viento  
Velocidad del viento 6 mph ()    
Velocidad máxima del viento 21 mph    
Max Gust Speed -    
Visibilidad 5.1 Millas    
Eventos Lluvia    
T = Trace of Precipitation, MM = Missing Value Source: Averaged Metar Reports

Daily Weather History Graph

Daily Weather History Graph

Search for Another Location

Airport or City:

Astronomía

Jan. 13, 2019 Salida Puesta
Hora real 8:26 AM CET 6:00 PM CET
Crepúsculo civil 7:56 AM CET 6:30 PM CET
Crepúsculo náutico 7:23 AM CET 7:04 PM CET
Crepúsculo astronómico 6:50 AM CET 7:36 PM CET
Luna 12:30 PM CET (1/13) 12:04 AM CET (1/13)
Horas de luz 10h 33m
Horas de luz
9h 33m
Creciente, 42% of the Moon is Illuminated
Ene 13
Creciente
Ene 14
Cuarto creciente
Ene 21
Luna llena
Ene 27
Cuarto menguante
Feb 4
Nueva

Hourly Weather History & Observations

Hora (CET) Temp. Vientos helados Punto de rocío Humedad Presión Visibilidad Wind Dir Velocidad del viento Velocidad de ráfagas Precip Eventos Condiciones
12:00 AM 26.6 ° F 21.2 ° F 23.0 ° F 86% 30.39 pul 6.2 mi NO 4.6 mph - N/A   Desconocido
12:30 AM 24.8 ° F 17.9 ° F 21.2 ° F 86% 30.36 pul 6.2 mi ONO 5.8 mph - N/A   Desconocido
1:30 AM 26.6 ° F 20.0 ° F 24.8 ° F 93% 30.36 pul 6.2 mi NNO 5.8 mph - N/A   Desconocido
2:00 AM 24.8 ° F 16.9 ° F 23.0 ° F 93% 30.36 pul 6.2 mi NO 6.9 mph - N/A   Desconocido
3:00 AM 23.0 ° F 18.4 ° F 21.2 ° F 93% 30.36 pul 6.2 mi NNO 3.5 mph - N/A   Muy nublado
3:30 AM 23.0 ° F 17.0 ° F 21.2 ° F 93% 30.36 pul 5.6 mi NO 4.6 mph - N/A   Parcialmente nublado
4:00 AM 23.0 ° F 15.8 ° F 21.2 ° F 93% 30.36 pul 6.2 mi NO 5.8 mph - N/A   Desconocido
5:00 AM 21.2 ° F 16.4 ° F 19.4 ° F 93% 30.33 pul - ONO 3.5 mph - N/A   Neblina
6:00 AM 21.2 ° F 13.6 ° F 19.4 ° F 93% 30.33 pul 1.2 mi NO 5.8 mph - N/A   Llovizna débil
6:30 AM 21.2 ° F 14.9 ° F 17.6 ° F 86% 30.33 pul 0.6 mi NO 4.6 mph - N/A   Desconocido
7:00 AM 21.2 ° F - 19.4 ° F 93% 30.33 pul 5.6 mi NO 2.3 mph - N/A   Desconocido
7:30 AM 21.2 ° F 16.4 ° F 19.4 ° F 93% 30.33 pul 0.3 mi ONO 3.5 mph - N/A Lluvia Lluvia débil
8:30 AM 21.2 ° F - 19.4 ° F 93% 30.36 pul 6.2 mi Variable 2.3 mph - N/A   Desconocido
9:00 AM 23.0 ° F - 19.4 ° F 86% 30.36 pul 4.3 mi NNO 2.3 mph - N/A   Desconocido
10:00 AM 28.4 ° F 24.6 ° F 24.8 ° F 86% 30.36 pul 6.2 mi Norte 3.5 mph - N/A   Desconocido
11:00 AM 32.0 ° F 26.4 ° F 26.6 ° F 80% 30.36 pul 6.2 mi NO 5.8 mph - N/A   Desconocido
11:30 AM 33.8 ° F 30.8 ° F 28.4 ° F 81% 30.36 pul 5.6 mi NNO 3.5 mph - N/A   Desconocido
12:30 PM 39.2 ° F 32.0 ° F 28.4 ° F 65% 30.36 pul 6.2 mi NNO 11.5 mph - N/A   Desconocido
1:00 PM 41.0 ° F 33.5 ° F 28.4 ° F 61% 30.33 pul 6.2 mi NNO 13.8 mph - N/A   Desconocido
2:00 PM 42.8 ° F 34.0 ° F 30.2 ° F 61% 30.30 pul 6.2 mi Norte 20.7 mph - N/A   Desconocido
3:00 PM 44.6 ° F 36.9 ° F 30.2 ° F 57% 30.30 pul 6.2 mi Norte 18.4 mph - N/A   Desconocido
4:30 PM 44.6 ° F 37.8 ° F 28.4 ° F 53% 30.27 pul 6.2 mi Norte 15.0 mph - N/A   Desconocido
5:00 PM 44.6 ° F 37.8 ° F 30.2 ° F 57% 30.27 pul 6.2 mi Norte 15.0 mph - N/A   Desconocido
5:30 PM 42.8 ° F 35.4 ° F 30.2 ° F 61% 30.27 pul 6.2 mi Norte 15.0 mph - N/A   Desconocido
6:30 PM 39.2 ° F 33.0 ° F 30.2 ° F 70% 30.27 pul 6.2 mi NNO 9.2 mph - N/A   Desconocido
7:30 PM 35.6 ° F 29.2 ° F 28.4 ° F 75% 30.30 pul 6.2 mi NO 8.1 mph - N/A   Desconocido
8:00 PM 33.8 ° F 29.6 ° F 28.4 ° F 81% 30.27 pul 1.0 mi ONO 4.6 mph - N/A   Llovizna débil
8:30 PM 32.0 ° F - 26.6 ° F 80% 30.30 pul - NO 2.3 mph - N/A   Llovizna débil
10:00 PM 30.2 ° F 26.7 ° F 24.8 ° F 80% 30.27 pul 0.6 mi NO 3.5 mph - N/A   Neblina